Location: Chiroubles
(46.1812°N, 4.6660°E)
Time: 15:22:10
(UTC+00:00)

Transit 4A - Pass Details

Date: 30 November 2020
Orbit: 864 x 980 km, 66.8° (Epoch: 26 January)

Event Time Altitude Azimuth Distance (km) Brightness Sun altitude
Rises 09:47:15 0° 269° (W) 3,660 10.8 18.2°
Reaches altitude 10° 09:50:37 10° 286° (WNW) 2,727 10.0 18.4°
Maximum altitude 09:55:05 19° 331° (NNW) 2,132 9.4 18.7°
Drops below altitude 10° 09:59:36 10° 16° (NNE) 2,741 10.0 19.0°
Sets 10:03:01 0° 33° (NNE) 3,686 10.7 19.3°
